sat.trackr.live / text

‹ back to catalog

STARLINK-36618

NORAD 67847 · 2026-033AC

PAYLOAD ACTIVE UNKNOWN

§ Identity

Operator
Country
US
Launch date
2026-02-16
Launch site
AFETR
Launch vehicle
Mass (kg)
RCS (m²)

Purposes: comms

External: N2YO · Heavens-Above · Gunter

§ Orbital elements

Epoch: 2026-05-24T13:50:09.787488Z

Period
94.21 min
Inclination
43.0007°
Eccentricity
0.0001616
Mean motion
15.28424285 rev/d
Perigee alt
479.4 km
Apogee alt
481.6 km
Semi-major
6,858.7 km
B*
2.9677e-4
RAAN
183.9749°
Arg perigee
273.4894°
Mean anomaly
86.5773°
Rev number
1,644

§ Raw data

STARLINK-366181 67847U 26033AC  26144.57650217  .00008125  00000+0  29677-3 0  99952 67847  43.0007 183.9749 0001616 273.4894  86.5773 15.28424285 16442

JSON: /api/v1/satellites/67847 · /tle

For live sub-satellite position, see the globe view (requires WebGL).

§ Visibility from observer

Set your observer location to see the next 7 days of passes ≥ 10°. The values pass through the URL so the page stays shareable.

No JS? Fill the form by hand. The geolocation button needs JavaScript.